TELSTAR 11N

Last updated on Wed Jul 02 2025 00:02:44 GMT+0000 (Coordinated Universal Time)

1 34111U 09009A 25182.42492508 -.00000248 00000+0 00000+0 0 9993 2 34111 0.0022 114.1347 0002557 333.9055 307.1000 1.00271243 42720
UTC large
Height (km)
Speed (km/s)
/
Latitude / Longitude
Inclination (degrees)
Orbital Period (minutes)
Azimuth
Elevation
Range (km)
Doppler Factor

Next 0 passes for location: London (51.5072 / 0.1276)

Sorry there are no passes over London.